Time,TemperatureF,DewpointF,PressureIn,WindDirection,WindDirectionDegrees,WindSpeedMPH,WindSpeedGustMPH,Humidity,HourlyPrecipIn,Conditions,Clouds,dailyrainin,SoftwareType,DateUTC
2013-02-01 00:03:00,53.0,-99.9,30.02,North,356,3.0,7.0,-999,0.00,,,0.13,,2013-02-01 05:03:00,
2013-02-01 00:12:00,53.0,-99.9,30.02,North,356,3.0,7.0,-999,0.00,,,0.13,,2013-02-01 05:12:00,
2013-02-01 00:23:00,52.0,-99.9,30.02,NNW,328,2.0,0.0,-999,0.00,,,0.13,,2013-02-01 05:23:00,
2013-02-01 00:32:00,52.0,-99.9,30.01,NW,325,1.0,0.0,-999,0.00,,,0.13,,2013-02-01 05:32:00,
2013-02-01 00:42:00,52.0,-99.9,30.01,NW,325,1.0,0.0,-999,0.00,,,0.13,,2013-02-01 05:42:00,
2013-02-01 00:52:00,52.0,-99.9,30.01,North,359,0.0,0.0,-999,0.00,,,0.13,,2013-02-01 05:52:00,
2013-02-01 01:02:00,51.0,-99.9,30.01,North,359,0.0,0.0,-999,0.00,,,0.13,,2013-02-01 06:02:00,
2013-02-01 01:12:00,51.0,-99.9,30.01,North,359,0.0,0.0,-999,0.00,,,0.13,,2013-02-01 06:12:00,
2013-02-01 01:22:00,51.0,-99.9,30.01,NW,307,0.0,0.0,-999,0.00,,,0.13,,2013-02-01 06:22:00,
2013-02-01 01:32:00,52.0,-99.9,30.02,NNW,343,2.0,0.0,-999,0.00,,,0.13,,2013-02-01 06:32:00,
2013-02-01 01:42:00,52.0,-99.9,30.02,NNW,343,2.0,0.0,-999,0.00,,,0.13,,2013-02-01 06:42:00,
2013-02-01 01:52:00,52.0,-99.9,30.01,NNW,340,0.0,0.0,-999,0.00,,,0.13,,2013-02-01 06:52:00,
2013-02-01 02:02:00,52.0,-99.9,30.01,NNW,340,0.0,0.0,-999,0.00,,,0.13,,2013-02-01 07:02:00,
2013-02-01 02:12:00,51.0,-99.9,30.01,North,1,0.0,0.0,-999,0.00,,,0.13,,2013-02-01 07:12:00,
2013-02-01 02:22:00,51.0,-99.9,30.01,North,1,0.0,0.0,-999,0.00,,,0.13,,2013-02-01 07:22:00,
2013-02-01 02:32:00,51.0,-99.9,30.01,North,359,0.0,0.0,-999,0.00,,,0.13,,2013-02-01 07:32:00,
2013-02-01 02:42:00,51.0,-99.9,30.01,North,359,0.0,0.0,-999,0.00,,,0.13,,2013-02-01 07:42:00,
2013-02-01 02:52:00,51.0,-99.9,30.01,North,359,0.0,0.0,-999,0.00,,,0.13,,2013-02-01 07:52:00,
2013-02-01 03:01:00,51.0,-99.9,30.02,North,359,2.0,7.0,-999,0.00,,,0.13,,2013-02-01 08:01:00,
2013-02-01 03:11:00,51.0,-99.9,30.02,North,359,2.0,7.0,-999,0.00,,,0.13,,2013-02-01 08:11:00,
2013-02-01 03:22:00,51.0,-99.9,30.02,North,7,0.0,0.0,-999,0.00,,,0.13,,2013-02-01 08:22:00,
2013-02-01 03:32:00,51.0,-99.9,30.02,NNE,18,0.0,0.0,-999,0.00,,,0.13,,2013-02-01 08:32:00,
2013-02-01 03:42:00,51.0,-99.9,30.02,NNE,18,0.0,0.0,-999,0.00,,,0.13,,2013-02-01 08:42:00,
2013-02-01 03:52:00,50.0,-99.9,30.02,NNW,343,0.0,0.0,-999,0.00,,,0.13,,2013-02-01 08:52:00,
2013-02-01 04:02:00,50.0,-99.9,30.02,North,359,0.0,0.0,-999,0.00,,,0.13,,2013-02-01 09:02:00,
2013-02-01 04:11:00,50.0,-99.9,30.02,North,359,0.0,0.0,-999,0.00,,,0.13,,2013-02-01 09:11:00,
2013-02-01 04:22:00,50.0,-99.9,30.02,NW,309,0.0,0.0,-999,0.00,,,0.13,,2013-02-01 09:22:00,
2013-02-01 04:32:00,49.0,-99.9,30.03,NNW,335,0.0,0.0,-999,0.00,,,0.13,,2013-02-01 09:32:00,
2013-02-01 04:42:00,49.0,-99.9,30.03,NNW,335,0.0,0.0,-999,0.00,,,0.13,,2013-02-01 09:42:00,
2013-02-01 04:52:00,49.0,-99.9,30.03,NW,307,0.0,0.0,-999,0.00,,,0.13,,2013-02-01 09:52:00,
2013-02-01 05:01:00,49.0,-99.9,30.03,North,356,0.0,0.0,-999,0.00,,,0.13,,2013-02-01 10:01:00,
2013-02-01 05:11:00,49.0,-99.9,30.03,North,356,0.0,0.0,-999,0.00,,,0.13,,2013-02-01 10:11:00,
2013-02-01 05:21:00,49.0,-99.9,30.04,NNE,24,0.0,0.0,-999,0.00,,,0.13,,2013-02-01 10:21:00,
2013-02-01 05:32:00,49.0,-99.9,30.04,North,10,0.0,0.0,-999,0.00,,,0.13,,2013-02-01 10:32:00,
2013-02-01 05:43:00,49.0,-99.9,30.04,North,10,0.0,0.0,-999,0.00,,,0.13,,2013-02-01 10:43:00,
2013-02-01 05:53:00,50.0,-99.9,30.04,NW,316,0.0,0.0,-999,0.00,,,0.13,,2013-02-01 10:53:00,
2013-02-01 06:02:00,50.0,-99.9,30.05,NNW,340,1.0,0.0,-999,0.00,,,0.13,,2013-02-01 11:02:00,
2013-02-01 06:11:00,50.0,-99.9,30.05,NNW,340,1.0,0.0,-999,0.00,,,0.13,,2013-02-01 11:11:00,
2013-02-01 06:22:00,50.0,-99.9,30.06,NNE,18,1.0,0.0,-999,0.00,,,0.13,,2013-02-01 11:22:00,
2013-02-01 06:32:00,50.0,-99.9,30.06,NNW,345,0.0,0.0,-999,0.00,,,0.13,,2013-02-01 11:32:00,
2013-02-01 06:53:00,49.0,-99.9,30.07,North,11,0.0,0.0,-999,0.00,,,0.13,,2013-02-01 11:53:00,
2013-02-01 07:03:00,49.0,-99.9,30.07,NNW,342,0.0,5.0,-999,0.00,,,0.13,,2013-02-01 12:03:00,
2013-02-01 07:12:00,49.0,-99.9,30.07,NNW,342,0.0,5.0,-999,0.00,,,0.13,,2013-02-01 12:12:00,
2013-02-01 07:23:00,49.0,-99.9,30.08,NNW,347,0.0,0.0,-999,0.00,,,0.13,,2013-02-01 12:23:00,
2013-02-01 07:32:00,49.0,-99.9,30.09,North,353,0.0,0.0,-999,0.00,,,0.13,,2013-02-01 12:32:00,
2013-02-01 07:42:00,49.0,-99.9,30.09,North,353,0.0,0.0,-999,0.00,,,0.13,,2013-02-01 12:42:00,
2013-02-01 07:52:00,50.0,-99.9,30.09,NNW,330,2.0,3.0,-999,0.00,,,0.13,,2013-02-01 12:52:00,
2013-02-01 08:02:00,51.0,-99.9,30.09,North,1,0.0,0.0,-999,0.00,,,0.13,,2013-02-01 13:02:00,
2013-02-01 08:22:00,52.0,-99.9,30.10,North,3,3.0,0.0,-999,0.00,,,0.13,,2013-02-01 13:22:00,
2013-02-01 08:33:00,53.0,-99.9,30.11,NNW,343,3.0,0.0,-999,0.00,,,0.13,,2013-02-01 13:33:00,
2013-02-01 08:53:00,54.0,-99.9,30.12,North,359,4.0,0.0,-999,0.00,,,0.13,,2013-02-01 13:53:00,
2013-02-01 09:03:00,54.0,-99.9,30.12,NNW,345,4.0,0.0,-999,0.00,,,0.13,,2013-02-01 14:03:00,
2013-02-01 09:12:00,55.0,-99.9,30.13,NNW,342,4.0,6.0,-999,0.00,,,0.13,,2013-02-01 14:12:00,
2013-02-01 09:22:00,55.0,-99.9,30.13,NNW,342,4.0,6.0,-999,0.00,,,0.13,,2013-02-01 14:22:00,
2013-02-01 09:33:00,56.0,-99.9,30.13,NNE,14,2.0,0.0,-999,0.00,,,0.13,,2013-02-01 14:33:00,
2013-02-01 09:53:00,56.0,-99.9,30.14,NNW,343,6.0,0.0,-999,0.00,,,0.13,,2013-02-01 14:53:00,
2013-02-01 10:03:00,57.0,-99.9,30.14,North,359,3.0,7.0,-999,0.00,,,0.13,,2013-02-01 15:03:00,
2013-02-01 10:12:00,58.0,-99.9,30.15,NNW,339,0.0,8.0,-999,0.00,,,0.13,,2013-02-01 15:12:00,
2013-02-01 10:22:00,58.0,-99.9,30.15,NNW,339,0.0,8.0,-999,0.00,,,0.13,,2013-02-01 15:22:00,
2013-02-01 10:33:00,58.0,-99.9,30.15,NNW,328,3.0,0.0,-999,0.00,,,0.13,,2013-02-01 15:33:00,
2013-02-01 10:42:00,58.0,-99.9,30.15,NNW,328,3.0,0.0,-999,0.00,,,0.13,,2013-02-01 15:42:00,
2013-02-01 10:52:00,59.0,-99.9,30.14,NNW,342,4.0,0.0,-999,0.00,,,0.13,,2013-02-01 15:52:00,
2013-02-01 11:03:00,60.0,-99.9,30.14,NNE,31,0.0,0.0,-999,0.00,,,0.13,,2013-02-01 16:03:00,
2013-02-01 11:12:00,60.0,-99.9,30.15,NE,48,1.0,0.0,-999,0.00,,,0.13,,2013-02-01 16:12:00,
2013-02-01 11:22:00,60.0,-99.9,30.15,NE,48,1.0,0.0,-999,0.00,,,0.13,,2013-02-01 16:22:00,
2013-02-01 11:33:00,61.0,-99.9,30.14,North,7,1.0,0.0,-999,0.00,,,0.13,,2013-02-01 16:33:00,
2013-02-01 11:43:00,61.0,-99.9,30.14,North,11,2.0,5.0,-999,0.00,,,0.13,,2013-02-01 16:43:00,
2013-02-01 11:53:00,61.0,-99.9,30.14,North,11,2.0,5.0,-999,0.00,,,0.13,,2013-02-01 16:53:00,
2013-02-01 12:03:00,62.0,-99.9,30.13,NNW,342,3.0,5.0,-999,0.00,,,0.13,,2013-02-01 17:03:00,
2013-02-01 12:12:00,62.0,-99.9,30.13,NE,38,0.0,0.0,-999,0.00,,,0.13,,2013-02-01 17:12:00,
2013-02-01 12:22:00,62.0,-99.9,30.13,NE,38,0.0,0.0,-999,0.00,,,0.13,,2013-02-01 17:22:00,
2013-02-01 12:32:00,63.0,-99.9,30.13,NNW,345,3.0,0.0,-999,0.00,,,0.13,,2013-02-01 17:32:00,
2013-02-01 12:42:00,63.0,-99.9,30.13,NNW,345,3.0,0.0,-999,0.00,,,0.13,,2013-02-01 17:42:00,
2013-02-01 12:53:00,63.0,-99.9,30.12,NNW,339,0.0,0.0,-999,0.00,,,0.13,,2013-02-01 17:53:00,
2013-02-01 13:03:00,64.0,-99.9,30.11,North,352,0.0,0.0,-999,0.00,,,0.13,,2013-02-01 18:03:00,
2013-02-01 13:13:00,64.0,-99.9,30.11,North,352,0.0,0.0,-999,0.00,,,0.13,,2013-02-01 18:13:00,
2013-02-01 13:23:00,64.0,-99.9,30.10,NNW,340,3.0,7.0,-999,0.00,,,0.13,,2013-02-01 18:23:00,
2013-02-01 13:33:00,65.0,-99.9,30.10,North,359,1.0,0.0,-999,0.00,,,0.13,,2013-02-01 18:33:00,
2013-02-01 13:42:00,65.0,-99.9,30.10,North,359,1.0,0.0,-999,0.00,,,0.13,,2013-02-01 18:42:00,
2013-02-01 13:53:00,65.0,-99.9,30.09,NNE,15,3.0,4.0,-999,0.00,,,0.13,,2013-02-01 18:53:00,
2013-02-01 14:03:00,66.0,-99.9,30.08,NE,48,1.0,0.0,-999,0.00,,,0.13,,2013-02-01 19:03:00,
2013-02-01 14:12:00,66.0,-99.9,30.08,NE,48,1.0,0.0,-999,0.00,,,0.13,,2013-02-01 19:12:00,
2013-02-01 14:22:00,66.0,-99.9,30.08,NE,37,0.0,5.0,-999,0.00,,,0.13,,2013-02-01 19:22:00,
2013-02-01 14:33:00,66.0,-99.9,30.07,North,357,1.0,0.0,-999,0.00,,,0.13,,2013-02-01 19:33:00,
2013-02-01 14:42:00,66.0,-99.9,30.07,North,357,1.0,0.0,-999,0.00,,,0.13,,2013-02-01 19:42:00,
2013-02-01 14:52:00,66.0,-99.9,30.07,NNE,28,1.0,6.0,-999,0.00,,,0.13,,2013-02-01 19:52:00,
2013-02-01 15:02:00,67.0,-99.9,30.06,North,1,0.0,0.0,-999,0.00,,,0.13,,2013-02-01 20:02:00,
2013-02-01 15:12:00,66.0,-99.9,30.06,NE,45,6.0,7.0,-999,0.00,,,0.13,,2013-02-01 20:12:00,
2013-02-01 15:22:00,66.0,-99.9,30.06,NE,45,6.0,7.0,-999,0.00,,,0.13,,2013-02-01 20:22:00,
2013-02-01 15:32:00,66.0,-99.9,30.06,North,356,1.0,0.0,-999,0.00,,,0.13,,2013-02-01 20:32:00,
2013-02-01 15:42:00,66.0,-99.9,30.06,NNE,25,1.0,0.0,-999,0.00,,,0.13,,2013-02-01 20:42:00,
2013-02-01 15:52:00,66.0,-99.9,30.06,NNE,25,1.0,0.0,-999,0.00,,,0.13,,2013-02-01 20:52:00,
2013-02-01 16:02:00,66.0,-99.9,30.06,North,3,2.0,0.0,-999,0.00,,,0.13,,2013-02-01 21:02:00,
2013-02-01 16:12:00,66.0,-99.9,30.06,North,3,2.0,0.0,-999,0.00,,,0.13,,2013-02-01 21:12:00,
2013-02-01 16:22:00,66.0,-99.9,30.06,NE,37,2.0,0.0,-999,0.00,,,0.13,,2013-02-01 21:22:00,
2013-02-01 16:32:00,66.0,-99.9,30.06,North,359,1.0,0.0,-999,0.00,,,0.13,,2013-02-01 21:32:00,
2013-02-01 16:42:00,66.0,-99.9,30.06,North,359,1.0,0.0,-999,0.00,,,0.13,,2013-02-01 21:42:00,
2013-02-01 16:53:00,66.0,-99.9,30.06,ENE,65,0.0,0.0,-999,0.00,,,0.13,,2013-02-01 21:53:00,
2013-02-01 17:03:00,66.0,-99.9,30.06,ENE,72,1.0,6.0,-999,0.00,,,0.13,,2013-02-01 22:03:00,
2013-02-01 17:11:00,65.0,-99.9,30.06,North,350,0.0,0.0,-999,0.00,,,0.13,,2013-02-01 22:11:00,
2013-02-01 17:22:00,65.0,-99.9,30.06,North,350,0.0,0.0,-999,0.00,,,0.13,,2013-02-01 22:22:00,
2013-02-01 17:32:00,65.0,-99.9,30.06,NNE,27,0.0,0.0,-999,0.00,,,0.13,,2013-02-01 22:32:00,
2013-02-01 17:42:00,65.0,-99.9,30.06,NNE,27,0.0,0.0,-999,0.00,,,0.13,,2013-02-01 22:42:00,
2013-02-01 17:52:00,64.0,-99.9,30.06,NNE,32,0.0,0.0,-999,0.00,,,0.13,,2013-02-01 22:52:00,
2013-02-01 18:02:00,64.0,-99.9,30.06,NNE,32,0.0,0.0,-999,0.00,,,0.13,,2013-02-01 23:02:00,
2013-02-01 18:11:00,64.0,-99.9,30.06,NNE,32,0.0,0.0,-999,0.00,,,0.13,,2013-02-01 23:11:00,
2013-02-01 18:22:00,62.0,-99.9,30.06,NNE,32,0.0,0.0,-999,0.00,,,0.13,,2013-02-01 23:22:00,
2013-02-01 18:32:00,61.0,-99.9,30.06,NNE,32,0.0,0.0,-999,0.00,,,0.13,,2013-02-01 23:32:00,
2013-02-01 18:42:00,61.0,-99.9,30.06,NNE,32,0.0,0.0,-999,0.00,,,0.13,,2013-02-01 23:42:00,
2013-02-01 18:52:00,60.0,-99.9,30.06,NNE,32,0.0,0.0,-999,0.00,,,0.13,,2013-02-01 23:52:00,
2013-02-01 19:02:00,59.0,-99.9,30.06,NNE,32,0.0,0.0,-999,0.00,,,0.13,,2013-02-02 00:02:00,
2013-02-01 19:11:00,59.0,-99.9,30.06,NNE,32,0.0,0.0,-999,0.00,,,0.13,,2013-02-02 00:11:00,
2013-02-01 19:22:00,58.0,-99.9,30.06,NNE,32,0.0,0.0,-999,0.00,,,0.13,,2013-02-02 00:22:00,
2013-02-01 19:32:00,58.0,-99.9,30.06,NNE,32,0.0,0.0,-999,0.00,,,0.13,,2013-02-02 00:32:00,
2013-02-01 19:42:00,58.0,-99.9,30.06,NNE,32,0.0,0.0,-999,0.00,,,0.13,,2013-02-02 00:42:00,
2013-02-01 19:52:00,57.0,-99.9,30.06,NNE,32,0.0,0.0,-999,0.00,,,0.13,,2013-02-02 00:52:00,
2013-02-01 20:03:00,57.0,-99.9,30.06,NNE,32,0.0,0.0,-999,0.00,,,0.13,,2013-02-02 01:03:00,
2013-02-01 20:11:00,57.0,-99.9,30.06,NNE,32,0.0,0.0,-999,0.00,,,0.13,,2013-02-02 01:11:00,
2013-02-01 20:22:00,56.0,-99.9,30.06,NNE,32,0.0,0.0,-999,0.00,,,0.00,,2013-02-02 01:22:00,
2013-02-01 20:32:00,56.0,-99.9,30.06,NNE,32,0.0,0.0,-999,0.00,,,0.00,,2013-02-02 01:32:00,
2013-02-01 20:42:00,56.0,-99.9,30.06,NNE,32,0.0,0.0,-999,0.00,,,0.00,,2013-02-02 01:42:00,
2013-02-01 20:52:00,56.0,-99.9,30.06,NNE,32,0.0,0.0,-999,0.00,,,0.00,,2013-02-02 01:52:00,
2013-02-01 21:01:00,55.0,-99.9,30.06,NNE,32,0.0,0.0,-999,0.00,,,0.00,,2013-02-02 02:01:00,
2013-02-01 21:11:00,55.0,-99.9,30.06,NNE,32,0.0,0.0,-999,0.00,,,0.00,,2013-02-02 02:11:00,
2013-02-01 21:22:00,55.0,-99.9,30.06,NNE,32,0.0,0.0,-999,0.00,,,0.00,,2013-02-02 02:22:00,
2013-02-01 21:32:00,55.0,-99.9,30.07,NNE,32,0.0,0.0,-999,0.00,,,0.00,,2013-02-02 02:32:00,
2013-02-01 21:42:00,55.0,-99.9,30.07,NNE,32,0.0,0.0,-999,0.00,,,0.00,,2013-02-02 02:42:00,
2013-02-01 21:52:00,54.0,-99.9,30.07,NNE,32,0.0,0.0,-999,0.00,,,0.00,,2013-02-02 02:52:00,
2013-02-01 22:02:00,53.0,-99.9,30.07,NNE,32,0.0,0.0,-999,0.00,,,0.00,,2013-02-02 03:02:00,
2013-02-01 22:11:00,53.0,-99.9,30.07,NNE,32,0.0,0.0,-999,0.00,,,0.00,,2013-02-02 03:11:00,
2013-02-01 22:22:00,53.0,-99.9,30.07,NNE,32,0.0,0.0,-999,0.00,,,0.00,,2013-02-02 03:22:00,
2013-02-01 22:32:00,53.0,-99.9,30.07,NNE,32,0.0,0.0,-999,0.00,,,0.00,,2013-02-02 03:32:00,
2013-02-01 22:42:00,52.0,-99.9,30.07,NNE,32,0.0,0.0,-999,0.00,,,0.00,,2013-02-02 03:42:00,
2013-02-01 22:52:00,52.0,-99.9,30.07,NNE,32,0.0,0.0,-999,0.00,,,0.00,,2013-02-02 03:52:00,
2013-02-01 23:02:00,53.0,-99.9,30.08,NW,318,0.0,0.0,-999,0.00,,,0.00,,2013-02-02 04:02:00,
2013-02-01 23:22:00,54.0,-99.9,30.08,NW,318,0.0,0.0,-999,0.00,,,0.00,,2013-02-02 04:22:00,
2013-02-01 23:33:00,53.0,-99.9,30.08,NW,318,0.0,0.0,-999,0.00,,,0.00,,2013-02-02 04:33:00,
2013-02-01 23:52:00,52.0,-99.9,30.08,NW,318,0.0,0.0,-999,0.00,,,0.00,,2013-02-02 04:52:00,